Time,TemperatureF,DewpointF,PressureIn,WindDirection,WindDirectionDegrees,WindSpeedMPH,WindSpeedGustMPH,Humidity,HourlyPrecipIn,Conditions,Clouds,dailyrainin,SoftwareType,DateUTC
2013-01-05 00:03:00,34.3,24.1,30.33,WSW,258,0.0,0.0,66,0.00,CLR,,0.00,WeatherDisplay:10.37,2013-01-05 06:03:00,
2013-01-05 00:08:00,34.1,24.3,30.33,WSW,256,0.0,0.0,67,0.00,CLR,,0.00,WeatherDisplay:10.37,2013-01-05 06:08:00,
2013-01-05 00:13:00,34.0,24.2,30.33,WNW,288,0.0,0.0,67,0.00,CLR,,0.00,WeatherDisplay:10.37,2013-01-05 06:13:00,
2013-01-05 00:18:00,34.3,24.5,30.32,West,281,0.0,0.0,67,0.00,CLR,,0.00,WeatherDisplay:10.37,2013-01-05 06:18:00,
2013-01-05 00:23:00,34.4,24.2,30.33,WSW,255,0.0,1.1,66,0.00,CLR,,0.00,WeatherDisplay:10.37,2013-01-05 06:23:00,
2013-01-05 00:28:00,34.1,24.3,30.33,WSW,258,0.0,0.0,67,0.00,CLR,,0.00,WeatherDisplay:10.37,2013-01-05 06:28:00,
2013-01-05 00:33:00,33.5,24.4,30.33,WSW,252,0.0,0.0,69,0.00,CLR,,0.00,WeatherDisplay:10.37,2013-01-05 06:33:00,
2013-01-05 00:38:00,33.5,24.4,30.33,West,262,0.0,0.0,69,0.00,CLR,,0.00,WeatherDisplay:10.37,2013-01-05 06:38:00,
2013-01-05 00:43:00,33.5,24.1,30.33,SW,221,0.0,0.0,68,0.00,CLR,,0.00,WeatherDisplay:10.37,2013-01-05 06:43:00,
2013-01-05 00:48:00,33.5,24.4,30.33,SW,232,0.0,0.0,69,0.00,CLR,,0.00,WeatherDisplay:10.37,2013-01-05 06:48:00,
2013-01-05 00:53:00,33.5,24.4,30.32,SSW,201,0.0,0.0,69,0.00,CLR,,0.00,WeatherDisplay:10.37,2013-01-05 06:53:00,
2013-01-05 00:58:00,33.5,24.4,30.32,SW,225,0.0,1.1,69,0.00,CLR,,0.00,WeatherDisplay:10.37,2013-01-05 06:58:00,
2013-01-05 01:03:00,33.5,24.4,30.32,SW,232,0.0,0.0,69,0.00,CLR,,0.00,WeatherDisplay:10.37,2013-01-05 07:03:00,
2013-01-05 01:08:00,33.4,24.3,30.32,WSW,241,0.0,0.0,69,0.00,CLR,,0.00,WeatherDisplay:10.37,2013-01-05 07:08:00,
2013-01-05 01:13:00,33.3,24.2,30.32,WSW,238,0.0,0.0,69,0.00,CLR,,0.00,WeatherDisplay:10.37,2013-01-05 07:13:00,
2013-01-05 01:18:00,33.2,24.5,30.32,WSW,241,0.0,0.0,70,0.00,CLR,,0.00,WeatherDisplay:10.37,2013-01-05 07:18:00,
2013-01-05 01:23:00,33.1,24.4,30.32,SSW,204,0.0,0.0,70,0.00,CLR,,0.00,WeatherDisplay:10.37,2013-01-05 07:23:00,
2013-01-05 01:28:00,33.2,24.5,30.32,SSE,166,0.2,2.3,70,0.00,CLR,,0.00,WeatherDisplay:10.37,2013-01-05 07:28:00,
2013-01-05 01:33:00,33.0,24.3,30.32,SSE,163,0.0,0.0,70,0.00,CLR,,0.00,WeatherDisplay:10.37,2013-01-05 07:33:00,
2013-01-05 01:38:00,32.7,24.3,30.32,SE,146,0.0,0.0,71,0.00,CLR,,0.00,WeatherDisplay:10.37,2013-01-05 07:38:00,
2013-01-05 01:43:00,32.8,24.4,30.32,SSE,149,0.0,0.0,71,0.00,CLR,,0.00,WeatherDisplay:10.37,2013-01-05 07:43:00,
2013-01-05 01:48:00,32.8,24.1,30.31,SSE,153,0.0,0.0,70,0.00,CLR,,0.00,WeatherDisplay:10.37,2013-01-05 07:48:00,
2013-01-05 01:53:00,32.7,24.0,30.32,SE,141,0.0,0.0,70,0.00,CLR,,0.00,WeatherDisplay:10.37,2013-01-05 07:53:00,
2013-01-05 01:58:00,32.3,23.9,30.33,SSE,149,0.0,0.0,71,0.00,CLR,,0.00,WeatherDisplay:10.37,2013-01-05 07:58:00,
2013-01-05 02:03:00,32.4,24.0,30.32,South,189,0.1,1.1,71,0.00,CLR,,0.00,WeatherDisplay:10.37,2013-01-05 08:03:00,
2013-01-05 02:08:00,32.6,24.2,30.32,SE,131,0.0,0.0,71,0.00,CLR,,0.00,WeatherDisplay:10.37,2013-01-05 08:08:00,
2013-01-05 02:13:00,32.3,23.9,30.32,ESE,121,0.0,0.0,71,0.00,CLR,,0.00,WeatherDisplay:10.37,2013-01-05 08:13:00,
2013-01-05 02:18:00,32.0,24.0,30.32,SE,131,0.0,0.0,72,0.00,CLR,,0.00,WeatherDisplay:10.37,2013-01-05 08:18:00,
2013-01-05 02:24:00,31.8,23.8,30.31,SSE,148,0.0,0.0,72,0.00,CLR,,0.00,WeatherDisplay:10.37,2013-01-05 08:24:00,
2013-01-05 02:29:00,32.0,24.3,30.31,SW,218,0.0,0.0,73,0.00,CLR,,0.00,WeatherDisplay:10.37,2013-01-05 08:29:00,
2013-01-05 02:34:00,32.3,24.3,30.32,SW,219,0.0,0.0,72,0.00,CLR,,0.00,WeatherDisplay:10.37,2013-01-05 08:34:00,
2013-01-05 02:39:00,32.3,24.3,30.32,SW,219,0.0,0.0,72,0.00,CLR,,0.00,WeatherDisplay:10.37,2013-01-05 08:39:00,
2013-01-05 02:44:00,32.3,24.3,30.32,SW,222,0.0,0.0,72,0.00,CLR,,0.00,WeatherDisplay:10.37,2013-01-05 08:44:00,
2013-01-05 02:49:00,32.3,24.3,30.32,SSW,210,0.0,0.0,72,0.00,CLR,,0.00,WeatherDisplay:10.37,2013-01-05 08:49:00,
2013-01-05 02:54:00,32.1,24.1,30.32,SSW,207,0.0,0.0,72,0.00,CLR,,0.00,WeatherDisplay:10.37,2013-01-05 08:54:00,
2013-01-05 02:59:00,31.9,23.9,30.32,SE,146,0.0,0.0,72,0.00,CLR,,0.00,WeatherDisplay:10.37,2013-01-05 08:59:00,
2013-01-05 03:04:00,31.5,23.8,30.32,SE,145,0.0,0.0,73,0.00,CLR,,0.00,WeatherDisplay:10.37,2013-01-05 09:04:00,
2013-01-05 03:09:00,31.2,23.9,30.32,SE,145,0.0,0.0,74,0.00,CLR,,0.00,WeatherDisplay:10.37,2013-01-05 09:09:00,
2013-01-05 03:14:00,31.2,23.9,30.32,SSW,194,0.0,0.0,74,0.00,CLR,,0.00,WeatherDisplay:10.37,2013-01-05 09:14:00,
2013-01-05 03:19:00,31.1,23.8,30.32,SSW,195,0.0,0.0,74,0.00,CLR,,0.00,WeatherDisplay:10.37,2013-01-05 09:19:00,
2013-01-05 03:24:00,31.1,23.8,30.32,SSE,159,0.0,0.0,74,0.00,CLR,,0.00,WeatherDisplay:10.37,2013-01-05 09:24:00,
2013-01-05 03:29:00,30.9,23.9,30.32,SW,215,0.0,0.0,75,0.00,CLR,,0.00,WeatherDisplay:10.37,2013-01-05 09:29:00,
2013-01-05 03:34:00,30.9,23.9,30.32,SSW,206,0.1,1.1,75,0.00,CLR,,0.00,WeatherDisplay:10.37,2013-01-05 09:34:00,
2013-01-05 03:39:00,31.0,24.0,30.31,SE,141,0.0,0.0,75,0.00,CLR,,0.00,WeatherDisplay:10.37,2013-01-05 09:39:00,
2013-01-05 03:44:00,30.6,23.9,30.31,ESE,114,0.0,0.0,76,0.00,CLR,,0.00,WeatherDisplay:10.37,2013-01-05 09:44:00,
2013-01-05 03:49:00,30.5,24.1,30.32,SE,139,0.0,0.0,77,0.00,CLR,,0.00,WeatherDisplay:10.37,2013-01-05 09:49:00,
2013-01-05 03:54:00,30.9,24.2,30.32,SSE,156,0.0,0.0,76,0.00,CLR,,0.00,WeatherDisplay:10.37,2013-01-05 09:54:00,
2013-01-05 03:59:00,31.4,24.1,30.31,SSE,156,0.0,0.0,74,0.00,CLR,,0.00,WeatherDisplay:10.37,2013-01-05 09:59:00,
2013-01-05 04:04:00,31.4,24.4,30.31,ESE,114,0.0,0.0,75,0.00,CLR,,0.00,WeatherDisplay:10.37,2013-01-05 10:04:00,
2013-01-05 04:09:00,30.8,24.4,30.31,ESE,113,0.0,0.0,77,0.00,CLR,,0.00,WeatherDisplay:10.37,2013-01-05 10:09:00,
2013-01-05 04:14:00,30.6,24.6,30.31,SE,132,0.0,0.0,78,0.00,CLR,,0.00,WeatherDisplay:10.37,2013-01-05 10:14:00,
2013-01-05 04:19:00,30.9,24.8,30.31,SSE,155,0.0,0.0,78,0.00,CLR,,0.00,WeatherDisplay:10.37,2013-01-05 10:19:00,
2013-01-05 04:24:00,31.1,24.7,30.31,SE,144,0.0,0.0,77,0.00,CLR,,0.00,WeatherDisplay:10.37,2013-01-05 10:24:00,
2013-01-05 04:29:00,31.0,24.6,30.31,SE,143,0.0,0.0,77,0.00,CLR,,0.00,WeatherDisplay:10.37,2013-01-05 10:29:00,
2013-01-05 04:34:00,31.0,24.9,30.32,SE,143,0.0,0.0,78,0.00,CLR,,0.00,WeatherDisplay:10.37,2013-01-05 10:34:00,
2013-01-05 04:39:00,31.0,24.6,30.31,SE,143,0.0,0.0,77,0.00,CLR,,0.00,WeatherDisplay:10.37,2013-01-05 10:39:00,
2013-01-05 04:44:00,31.0,24.6,30.32,SE,143,0.0,0.0,77,0.00,CLR,,0.00,WeatherDisplay:10.37,2013-01-05 10:44:00,
2013-01-05 04:49:00,30.9,24.8,30.32,SE,134,0.0,0.0,78,0.00,CLR,,0.00,WeatherDisplay:10.37,2013-01-05 10:49:00,
2013-01-05 04:54:00,30.8,24.7,30.32,SE,144,0.0,0.0,78,0.00,CLR,,0.00,WeatherDisplay:10.37,2013-01-05 10:54:00,
2013-01-05 04:59:00,30.6,24.9,30.32,ESE,115,0.0,0.0,79,0.00,CLR,,0.00,WeatherDisplay:10.37,2013-01-05 10:59:00,
2013-01-05 05:04:00,30.4,24.7,30.32,ESE,114,0.0,0.0,79,0.00,CLR,,0.00,WeatherDisplay:10.37,2013-01-05 11:04:00,
2013-01-05 05:09:00,30.3,24.6,30.31,ESE,112,0.0,0.0,79,0.00,CLR,,0.00,WeatherDisplay:10.37,2013-01-05 11:09:00,
2013-01-05 05:14:00,30.3,24.6,30.31,SE,136,0.0,0.0,79,0.00,CLR,,0.00,WeatherDisplay:10.37,2013-01-05 11:14:00,
2013-01-05 05:19:00,30.2,24.8,30.31,SE,132,0.0,0.0,80,0.00,CLR,,0.00,WeatherDisplay:10.37,2013-01-05 11:19:00,
2013-01-05 05:24:00,30.2,24.8,30.31,SSE,162,0.0,0.0,80,0.00,CLR,,0.00,WeatherDisplay:10.37,2013-01-05 11:24:00,
2013-01-05 05:29:00,30.2,24.8,30.31,SSW,200,0.0,0.0,80,0.00,CLR,,0.00,WeatherDisplay:10.37,2013-01-05 11:29:00,
2013-01-05 05:34:00,30.3,24.9,30.32,ESE,105,0.0,0.0,80,0.00,CLR,,0.00,WeatherDisplay:10.37,2013-01-05 11:34:00,
2013-01-05 05:39:00,30.3,24.9,30.31,ESE,107,0.0,0.0,80,0.00,CLR,,0.00,WeatherDisplay:10.37,2013-01-05 11:39:00,
2013-01-05 05:44:00,30.4,25.0,30.31,SW,215,0.0,0.0,80,0.00,CLR,,0.00,WeatherDisplay:10.37,2013-01-05 11:44:00,
2013-01-05 05:49:00,30.5,24.8,30.32,SE,138,0.0,0.0,79,0.00,CLR,,0.00,WeatherDisplay:10.37,2013-01-05 11:49:00,
2013-01-05 05:54:00,30.7,25.0,30.32,SSE,166,0.0,0.0,79,0.00,CLR,,0.00,WeatherDisplay:10.37,2013-01-05 11:54:00,
2013-01-05 05:59:00,31.2,24.8,30.32,SE,143,0.0,0.0,77,0.00,CLR,,0.00,WeatherDisplay:10.37,2013-01-05 11:59:00,
2013-01-05 06:04:00,31.2,25.1,30.32,ESE,121,0.0,0.0,78,0.00,CLR,,0.00,WeatherDisplay:10.37,2013-01-05 12:04:00,
2013-01-05 06:09:00,30.8,24.7,30.32,SSE,151,0.0,0.0,78,0.00,CLR,,0.00,WeatherDisplay:10.37,2013-01-05 12:09:00,
2013-01-05 06:14:00,31.0,24.9,30.32,SW,216,0.0,0.0,78,0.00,CLR,,0.00,WeatherDisplay:10.37,2013-01-05 12:14:00,
2013-01-05 06:19:00,31.6,25.2,30.32,West,264,0.0,0.0,77,0.00,CLR,,0.00,WeatherDisplay:10.37,2013-01-05 12:19:00,
2013-01-05 06:24:00,32.1,25.1,30.32,SSE,158,0.0,2.3,75,0.00,CLR,,0.00,WeatherDisplay:10.37,2013-01-05 12:24:00,
2013-01-05 06:29:00,32.8,25.1,30.31,WSW,246,0.0,1.1,73,0.00,CLR,,0.00,WeatherDisplay:10.37,2013-01-05 12:29:00,
2013-01-05 06:34:00,32.9,25.2,30.31,WSW,240,0.0,0.0,73,0.00,CLR,,0.00,WeatherDisplay:10.37,2013-01-05 12:34:00,
2013-01-05 06:39:00,33.2,25.1,30.31,SSW,193,0.0,0.0,72,0.00,CLR,,0.00,WeatherDisplay:10.37,2013-01-05 12:39:00,
2013-01-05 06:44:00,33.5,25.1,30.31,SW,214,0.0,0.0,71,0.00,CLR,,0.00,WeatherDisplay:10.37,2013-01-05 12:44:00,
2013-01-05 06:49:00,33.6,25.2,30.31,SE,139,0.0,0.0,71,0.00,CLR,,0.00,WeatherDisplay:10.37,2013-01-05 12:49:00,
2013-01-05 06:54:00,33.0,25.3,30.31,ESE,115,0.0,0.0,73,0.00,CLR,,0.00,WeatherDisplay:10.37,2013-01-05 12:54:00,
2013-01-05 06:59:00,32.0,25.3,30.31,ESE,121,0.0,0.0,76,0.00,CLR,,0.00,WeatherDisplay:10.37,2013-01-05 12:59:00,
2013-01-05 07:04:00,31.2,25.1,30.31,ESE,107,0.0,0.0,78,0.00,CLR,,0.00,WeatherDisplay:10.37,2013-01-05 13:04:00,
2013-01-05 07:09:00,30.9,24.8,30.31,SE,127,0.0,0.0,78,0.00,CLR,,0.00,WeatherDisplay:10.37,2013-01-05 13:09:00,
2013-01-05 07:14:00,30.7,25.0,30.31,ESE,123,0.0,0.0,79,0.00,CLR,,0.00,WeatherDisplay:10.37,2013-01-05 13:14:00,
2013-01-05 07:19:00,30.5,25.1,30.31,East,98,0.0,0.0,80,0.00,CLR,,0.00,WeatherDisplay:10.37,2013-01-05 13:19:00,
2013-01-05 07:24:00,30.4,25.0,30.31,SE,126,0.0,0.0,80,0.00,CLR,,0.00,WeatherDisplay:10.37,2013-01-05 13:24:00,
2013-01-05 07:29:00,30.2,25.1,30.32,ESE,118,0.0,0.0,81,0.00,CLR,,0.00,WeatherDisplay:10.37,2013-01-05 13:29:00,
2013-01-05 07:34:00,30.1,25.3,30.31,ESE,115,0.0,0.0,82,0.00,CLR,,0.00,WeatherDisplay:10.37,2013-01-05 13:34:00,
2013-01-05 07:39:00,30.0,25.2,30.31,ESE,117,0.0,0.0,82,0.00,CLR,,0.00,WeatherDisplay:10.37,2013-01-05 13:39:00,
2013-01-05 07:44:00,29.8,25.0,30.31,ESE,108,0.0,0.0,82,0.00,CLR,,0.00,WeatherDisplay:10.37,2013-01-05 13:44:00,
2013-01-05 07:49:00,29.8,25.3,30.32,ESE,116,0.0,0.0,83,0.00,CLR,,0.00,WeatherDisplay:10.37,2013-01-05 13:49:00,
2013-01-05 07:54:00,29.8,25.0,30.32,East,86,0.0,0.0,82,0.00,CLR,,0.00,WeatherDisplay:10.37,2013-01-05 13:54:00,
2013-01-05 07:59:00,29.8,25.0,30.32,ESE,105,0.0,0.0,82,0.00,CLR,,0.00,WeatherDisplay:10.37,2013-01-05 13:59:00,
2013-01-05 08:04:00,29.9,25.4,30.32,SE,131,0.0,0.0,83,0.00,CLR,,0.00,WeatherDisplay:10.37,2013-01-05 14:04:00,
2013-01-05 08:09:00,30.0,25.5,30.32,ESE,117,0.0,0.0,83,0.00,CLR,,0.00,WeatherDisplay:10.37,2013-01-05 14:09:00,
2013-01-05 08:14:00,30.2,25.7,30.32,ESE,115,0.0,0.0,83,0.00,CLR,,0.00,WeatherDisplay:10.37,2013-01-05 14:14:00,
2013-01-05 08:19:00,30.3,25.8,30.31,SE,134,0.0,0.0,83,0.00,CLR,,0.00,WeatherDisplay:10.37,2013-01-05 14:19:00,
2013-01-05 08:24:00,30.4,25.9,30.31,SE,124,0.0,0.0,83,0.00,CLR,,0.00,WeatherDisplay:10.37,2013-01-05 14:24:00,
2013-01-05 08:29:00,30.5,26.0,30.32,SSE,165,0.0,0.0,83,0.00,CLR,,0.00,WeatherDisplay:10.37,2013-01-05 14:29:00,
2013-01-05 08:34:00,30.7,26.1,30.32,SSE,150,0.0,0.0,83,0.00,CLR,,0.00,WeatherDisplay:10.37,2013-01-05 14:34:00,
2013-01-05 08:40:00,31.0,26.1,30.32,SE,137,0.0,0.0,82,0.00,CLR,,0.00,WeatherDisplay:10.37,2013-01-05 14:40:00,
2013-01-05 08:45:00,31.4,26.2,30.32,SSW,205,0.0,0.0,81,0.00,CLR,,0.00,WeatherDisplay:10.37,2013-01-05 14:45:00,
2013-01-05 08:50:00,31.5,26.0,30.32,SSW,195,0.0,0.0,80,0.00,CLR,,0.00,WeatherDisplay:10.37,2013-01-05 14:50:00,
2013-01-05 08:55:00,31.7,25.9,30.32,SSW,200,0.0,3.0,79,0.00,CLR,,0.00,WeatherDisplay:10.37,2013-01-05 14:55:00,
2013-01-05 09:00:00,31.8,25.7,30.32,South,179,1.0,4.0,78,0.00,CLR,,0.00,WeatherDisplay:10.37,2013-01-05 15:00:00,
2013-01-05 09:05:00,31.9,25.5,30.32,SSE,154,2.0,5.0,77,0.00,CLR,,0.00,WeatherDisplay:10.37,2013-01-05 15:05:00,
2013-01-05 09:10:00,32.0,25.6,30.32,ESE,104,0.0,2.3,77,0.00,CLR,,0.00,WeatherDisplay:10.37,2013-01-05 15:10:00,
2013-01-05 09:15:00,32.1,25.7,30.32,SSE,149,0.0,2.0,77,0.00,CLR,,0.00,WeatherDisplay:10.37,2013-01-05 15:15:00,
2013-01-05 09:20:00,32.4,26.3,30.32,SSW,192,0.0,0.0,78,0.00,CLR,,0.00,WeatherDisplay:10.37,2013-01-05 15:20:00,
2013-01-05 09:25:00,32.7,26.3,30.31,SW,219,0.0,0.0,77,0.00,CLR,,0.00,WeatherDisplay:10.37,2013-01-05 15:25:00,
2013-01-05 09:30:00,32.8,26.4,30.32,SW,225,0.0,0.0,77,0.00,CLR,,0.00,WeatherDisplay:10.37,2013-01-05 15:30:00,
2013-01-05 09:35:00,33.1,26.7,30.32,SSW,203,0.0,2.0,77,0.00,CLR,,0.00,WeatherDisplay:10.37,2013-01-05 15:35:00,
2013-01-05 09:40:00,33.4,27.0,30.32,SW,229,0.0,0.0,77,0.00,CLR,,0.00,WeatherDisplay:10.37,2013-01-05 15:40:00,
2013-01-05 09:45:00,33.7,27.3,30.32,SE,144,0.0,0.0,77,0.00,CLR,,0.00,WeatherDisplay:10.37,2013-01-05 15:45:00,
2013-01-05 09:50:00,33.7,26.9,30.32,SE,138,0.0,0.0,76,0.00,CLR,,0.00,WeatherDisplay:10.37,2013-01-05 15:50:00,
2013-01-05 09:55:00,33.6,26.8,30.32,SE,129,0.0,1.1,76,0.00,CLR,,0.00,WeatherDisplay:10.37,2013-01-05 15:55:00,
2013-01-05 10:00:00,33.7,26.9,30.32,SE,139,1.0,4.0,76,0.00,CLR,,0.00,WeatherDisplay:10.37,2013-01-05 16:00:00,
2013-01-05 10:05:00,33.8,27.0,30.32,SE,145,3.0,6.0,76,0.00,CLR,,0.00,WeatherDisplay:10.37,2013-01-05 16:05:00,
2013-01-05 10:10:00,33.9,27.1,30.31,ESE,117,2.1,6.0,76,0.00,CLR,,0.00,WeatherDisplay:10.37,2013-01-05 16:10:00,
2013-01-05 10:15:00,34.0,27.2,30.30,SE,143,1.0,6.0,76,0.00,CLR,,0.00,WeatherDisplay:10.37,2013-01-05 16:15:00,
2013-01-05 10:20:00,34.3,27.5,30.30,SE,141,1.2,1.2,76,0.00,CLR,,0.00,WeatherDisplay:10.37,2013-01-05 16:20:00,
2013-01-05 10:25:00,34.5,27.7,30.30,SSE,149,0.0,3.0,76,0.00,CLR,,0.00,WeatherDisplay:10.37,2013-01-05 16:25:00,
2013-01-05 10:30:00,34.9,28.1,30.29,SE,138,0.0,0.0,76,0.00,CLR,,0.00,WeatherDisplay:10.37,2013-01-05 16:30:00,
2013-01-05 10:35:00,35.2,28.1,30.29,SSE,149,0.0,0.0,75,0.00,CLR,,0.00,WeatherDisplay:10.37,2013-01-05 16:35:00,
2013-01-05 10:40:00,35.8,28.6,30.29,SW,233,2.0,4.6,75,0.00,CLR,,0.00,WeatherDisplay:10.37,2013-01-05 16:40:00,
2013-01-05 10:45:00,36.3,28.8,30.29,SSW,200,1.0,4.0,74,0.00,CLR,,0.00,WeatherDisplay:10.37,2013-01-05 16:45:00,
2013-01-05 10:50:00,36.9,29.1,30.29,SSW,211,0.1,5.8,73,0.00,CLR,,0.00,WeatherDisplay:10.37,2013-01-05 16:50:00,
2013-01-05 10:55:00,37.4,29.2,30.29,SW,214,0.0,3.0,72,0.00,CLR,,0.00,WeatherDisplay:10.37,2013-01-05 16:55:00,
2013-01-05 11:00:00,38.1,29.5,30.29,South,173,0.7,1.1,71,0.00,CLR,,0.00,WeatherDisplay:10.37,2013-01-05 17:00:00,
2013-01-05 11:05:00,38.2,29.6,30.29,SW,233,1.6,3.5,71,0.00,CLR,,0.00,WeatherDisplay:10.37,2013-01-05 17:05:00,
2013-01-05 11:10:00,38.6,30.0,30.28,SW,216,0.0,3.0,71,0.00,CLR,,0.00,WeatherDisplay:10.37,2013-01-05 17:10:00,
2013-01-05 11:15:00,39.0,30.4,30.28,SSW,193,0.1,0.0,71,0.00,CLR,,0.00,WeatherDisplay:10.37,2013-01-05 17:15:00,
2013-01-05 11:20:00,39.4,30.0,30.28,SSW,210,0.0,2.0,69,0.00,CLR,,0.00,WeatherDisplay:10.37,2013-01-05 17:20:00,
2013-01-05 11:25:00,39.5,30.2,30.27,SW,219,2.1,2.1,69,0.00,CLR,,0.00,WeatherDisplay:10.37,2013-01-05 17:25:00,
2013-01-05 11:30:00,39.5,30.2,30.27,WSW,245,0.4,0.0,69,0.00,CLR,,0.00,WeatherDisplay:10.37,2013-01-05 17:30:00,
2013-01-05 11:35:00,39.5,29.8,30.27,South,181,0.0,4.0,68,0.00,CLR,,0.00,WeatherDisplay:10.37,2013-01-05 17:35:00,
2013-01-05 11:40:00,39.5,30.2,30.26,SSE,166,0.0,5.0,69,0.00,CLR,,0.00,WeatherDisplay:10.37,2013-01-05 17:40:00,
2013-01-05 11:45:00,39.8,30.5,30.25,SE,136,0.4,2.3,69,0.00,CLR,,0.00,WeatherDisplay:10.37,2013-01-05 17:45:00,
2013-01-05 11:50:00,40.0,30.3,30.25,SE,137,1.2,2.3,68,0.00,CLR,,0.00,WeatherDisplay:10.37,2013-01-05 17:50:00,
2013-01-05 11:55:00,40.4,30.7,30.25,SSE,163,0.0,3.0,68,0.00,CLR,,0.00,WeatherDisplay:10.37,2013-01-05 17:55:00,
2013-01-05 12:00:00,40.9,30.4,30.24,South,172,1.0,4.6,66,0.00,CLR,,0.00,WeatherDisplay:10.37,2013-01-05 18:00:00,
2013-01-05 12:05:00,41.0,30.1,30.24,South,175,1.0,5.0,65,0.00,CLR,,0.00,WeatherDisplay:10.37,2013-01-05 18:05:00,
2013-01-05 12:10:00,40.8,29.9,30.23,SSW,213,3.0,8.0,65,0.00,CLR,,0.00,WeatherDisplay:10.37,2013-01-05 18:10:00,
2013-01-05 12:15:00,41.0,30.1,30.23,SSW,204,3.0,9.0,65,0.00,CLR,,0.00,WeatherDisplay:10.37,2013-01-05 18:15:00,
2013-01-05 12:20:00,41.1,30.2,30.23,SSW,198,1.0,6.0,65,0.00,CLR,,0.00,WeatherDisplay:10.37,2013-01-05 18:20:00,
2013-01-05 12:25:00,41.3,29.6,30.22,South,170,3.0,8.1,63,0.00,CLR,,0.00,WeatherDisplay:10.37,2013-01-05 18:25:00,
2013-01-05 12:30:00,41.4,29.7,30.22,South,188,0.7,2.3,63,0.00,CLR,,0.00,WeatherDisplay:10.37,2013-01-05 18:30:00,
2013-01-05 12:35:00,41.8,30.1,30.22,SW,227,2.0,6.0,63,0.00,CLR,,0.00,WeatherDisplay:10.37,2013-01-05 18:35:00,
2013-01-05 12:40:00,42.1,30.4,30.21,WSW,242,0.0,4.6,63,0.00,CLR,,0.00,WeatherDisplay:10.37,2013-01-05 18:40:00,
2013-01-05 12:45:00,42.2,30.5,30.21,SW,224,6.3,7.0,63,0.00,CLR,,0.00,WeatherDisplay:10.37,2013-01-05 18:45:00,
2013-01-05 12:50:00,42.2,30.5,30.21,SW,216,10.0,15.0,63,0.00,CLR,,0.00,WeatherDisplay:10.37,2013-01-05 18:50:00,
2013-01-05 12:55:00,42.1,30.4,30.20,SW,230,7.0,13.0,63,0.00,CLR,,0.00,WeatherDisplay:10.37,2013-01-05 18:55:00,
2013-01-05 13:00:00,42.1,30.8,30.20,WSW,245,3.0,13.0,64,0.00,CLR,,0.00,WeatherDisplay:10.37,2013-01-05 19:00:00,
2013-01-05 13:05:00,42.1,30.8,30.20,WSW,252,3.0,15.0,64,0.00,CLR,,0.00,WeatherDisplay:10.37,2013-01-05 19:05:00,
2013-01-05 13:10:00,41.9,30.6,30.20,WSW,240,6.0,6.9,64,0.00,CLR,,0.00,WeatherDisplay:10.37,2013-01-05 19:10:00,
2013-01-05 13:15:00,42.0,31.1,30.19,WSW,258,3.8,6.0,65,0.00,CLR,,0.00,WeatherDisplay:10.37,2013-01-05 19:15:00,
2013-01-05 13:20:00,42.1,31.2,30.19,SW,223,0.0,10.0,65,0.00,CLR,,0.00,WeatherDisplay:10.37,2013-01-05 19:20:00,
2013-01-05 13:25:00,42.1,31.2,30.19,SW,214,4.6,6.0,65,0.00,CLR,,0.00,WeatherDisplay:10.37,2013-01-05 19:25:00,
2013-01-05 13:30:00,41.9,31.0,30.19,SW,225,12.0,17.0,65,0.00,CLR,,0.00,WeatherDisplay:10.37,2013-01-05 19:30:00,
2013-01-05 13:35:00,41.9,31.4,30.19,SW,235,1.3,4.6,66,0.00,CLR,,0.00,WeatherDisplay:10.37,2013-01-05 19:35:00,
2013-01-05 13:40:00,41.9,31.4,30.19,SSW,200,8.0,12.7,66,0.00,CLR,,0.00,WeatherDisplay:10.37,2013-01-05 19:40:00,
2013-01-05 13:45:00,42.0,31.5,30.19,SW,218,5.0,12.0,66,0.00,CLR,,0.00,WeatherDisplay:10.37,2013-01-05 19:45:00,
2013-01-05 13:50:00,42.2,31.6,30.19,SSW,210,2.2,4.6,66,0.00,CLR,,0.00,WeatherDisplay:10.37,2013-01-05 19:50:00,
2013-01-05 13:55:00,42.1,31.6,30.19,SW,231,9.0,14.0,66,0.00,CLR,,0.00,WeatherDisplay:10.37,2013-01-05 19:55:00,
2013-01-05 14:00:00,42.0,31.8,30.18,SW,221,5.0,13.0,67,0.00,CLR,,0.00,WeatherDisplay:10.37,2013-01-05 20:00:00,
2013-01-05 14:05:00,42.1,31.9,30.18,South,174,1.3,4.6,67,0.00,CLR,,0.00,WeatherDisplay:10.37,2013-01-05 20:05:00,
2013-01-05 14:10:00,42.2,32.0,30.18,SW,225,2.0,6.0,67,0.00,CLR,,0.00,WeatherDisplay:10.37,2013-01-05 20:10:00,
2013-01-05 14:15:00,42.2,32.0,30.18,SW,223,3.0,12.0,67,0.00,CLR,,0.00,WeatherDisplay:10.37,2013-01-05 20:15:00,
2013-01-05 14:20:00,42.1,31.9,30.18,WSW,239,0.9,10.4,67,0.00,CLR,,0.00,WeatherDisplay:10.37,2013-01-05 20:20:00,
2013-01-05 14:25:00,42.0,32.2,30.19,WSW,237,0.0,9.0,68,0.00,CLR,,0.00,WeatherDisplay:10.37,2013-01-05 20:25:00,
2013-01-05 14:30:00,41.9,32.1,30.18,SSE,163,8.2,9.0,68,0.00,CLR,,0.00,WeatherDisplay:10.37,2013-01-05 20:30:00,
2013-01-05 14:34:00,41.9,32.5,30.18,SW,236,5.2,10.4,69,0.00,CLR,,0.00,WeatherDisplay:10.37,2013-01-05 20:34:00,
2013-01-05 14:40:00,41.9,32.5,30.18,WSW,241,1.9,6.0,69,0.00,CLR,,0.00,WeatherDisplay:10.37,2013-01-05 20:40:00,
2013-01-05 14:45:00,41.9,32.5,30.18,WSW,242,3.0,6.0,69,0.00,CLR,,0.00,WeatherDisplay:10.37,2013-01-05 20:45:00,
2013-01-05 14:50:00,41.9,32.8,30.18,West,279,3.7,8.1,70,0.00,CLR,,0.00,WeatherDisplay:10.37,2013-01-05 20:50:00,
2013-01-05 14:55:00,41.9,32.8,30.18,WSW,240,6.0,12.0,70,0.00,CLR,,0.00,WeatherDisplay:10.37,2013-01-05 20:55:00,
2013-01-05 15:00:00,42.0,32.9,30.18,WSW,247,2.7,5.8,70,0.00,CLR,,0.00,WeatherDisplay:10.37,2013-01-05 21:00:00,
2013-01-05 15:05:00,42.0,32.9,30.18,WSW,242,5.0,7.0,70,0.00,CLR,,0.00,WeatherDisplay:10.37,2013-01-05 21:05:00,
2013-01-05 15:10:00,42.0,32.9,30.18,SW,229,3.0,9.0,70,0.00,CLR,,0.00,WeatherDisplay:10.37,2013-01-05 21:10:00,
2013-01-05 15:15:00,42.0,33.3,30.18,SW,215,0.7,5.8,71,0.00,CLR,,0.00,WeatherDisplay:10.37,2013-01-05 21:15:00,
2013-01-05 15:20:00,42.0,33.3,30.19,WSW,239,1.0,8.0,71,0.00,CLR,,0.00,WeatherDisplay:10.37,2013-01-05 21:20:00,
2013-01-05 15:25:00,42.0,32.9,30.19,SW,223,6.0,12.0,70,0.00,CLR,,0.00,WeatherDisplay:10.37,2013-01-05 21:25:00,
2013-01-05 15:30:00,42.0,33.3,30.19,SW,228,2.5,6.9,71,0.00,CLR,,0.00,WeatherDisplay:10.37,2013-01-05 21:30:00,
2013-01-05 15:35:00,42.0,33.3,30.19,WSW,238,1.3,3.5,71,0.00,CLR,,0.00,WeatherDisplay:10.37,2013-01-05 21:35:00,
2013-01-05 15:39:00,41.9,32.8,30.19,South,170,6.2,10.4,70,0.00,CLR,,0.00,WeatherDisplay:10.37,2013-01-05 21:39:00,
2013-01-05 15:44:00,41.9,33.2,30.19,SSW,210,1.4,9.2,71,0.00,CLR,,0.00,WeatherDisplay:10.37,2013-01-05 21:44:00,
2013-01-05 15:50:00,41.9,33.2,30.19,West,260,3.7,4.0,71,0.00,CLR,,0.00,WeatherDisplay:10.37,2013-01-05 21:50:00,
2013-01-05 15:55:00,41.9,33.2,30.19,SSW,211,2.4,4.6,71,0.00,CLR,,0.00,WeatherDisplay:10.37,2013-01-05 21:55:00,
2013-01-05 16:00:00,41.9,33.2,30.19,SW,225,6.0,8.0,71,0.00,CLR,,0.00,WeatherDisplay:10.37,2013-01-05 22:00:00,
2013-01-05 16:05:00,41.9,33.2,30.19,SW,220,3.0,7.0,71,0.00,CLR,,0.00,WeatherDisplay:10.37,2013-01-05 22:05:00,
2013-01-05 16:10:00,41.9,33.2,30.18,SSW,198,1.7,3.0,71,0.00,CLR,,0.00,WeatherDisplay:10.37,2013-01-05 22:10:00,
2013-01-05 16:15:00,41.9,33.2,30.18,SSW,204,6.0,10.0,71,0.00,CLR,,0.00,WeatherDisplay:10.37,2013-01-05 22:15:00,
2013-01-05 16:20:00,41.9,33.1,30.18,SSW,208,3.0,8.0,71,0.00,CLR,,0.00,WeatherDisplay:10.37,2013-01-05 22:20:00,
2013-01-05 16:25:00,41.8,33.1,30.18,SW,216,2.0,6.0,71,0.00,CLR,,0.00,WeatherDisplay:10.37,2013-01-05 22:25:00,
2013-01-05 16:30:00,41.8,33.1,30.18,SW,215,4.3,6.9,71,0.00,CLR,,0.00,WeatherDisplay:10.37,2013-01-05 22:30:00,
2013-01-05 16:35:00,41.7,33.0,30.19,SSW,204,0.0,5.0,71,0.00,CLR,,0.00,WeatherDisplay:10.37,2013-01-05 22:35:00,
2013-01-05 16:40:00,41.6,32.9,30.19,WSW,239,0.6,5.8,71,0.00,CLR,,0.00,WeatherDisplay:10.37,2013-01-05 22:40:00,
2013-01-05 16:45:00,41.6,32.9,30.18,SSW,204,3.0,9.0,71,0.00,CLR,,0.00,WeatherDisplay:10.37,2013-01-05 22:45:00,
2013-01-05 16:50:00,41.5,33.1,30.18,SW,235,1.5,5.8,72,0.00,CLR,,0.00,WeatherDisplay:10.37,2013-01-05 22:50:00,
2013-01-05 16:55:00,41.4,33.0,30.19,SW,236,2.6,5.8,72,0.00,CLR,,0.00,WeatherDisplay:10.37,2013-01-05 22:55:00,
2013-01-05 17:00:00,41.4,33.0,30.19,SW,226,3.0,10.0,72,0.00,CLR,,0.00,WeatherDisplay:10.37,2013-01-05 23:00:00,
2013-01-05 17:05:00,41.3,33.0,30.19,SW,221,3.0,8.0,72,0.00,CLR,,0.00,WeatherDisplay:10.37,2013-01-05 23:05:00,
2013-01-05 17:10:00,41.2,32.9,30.19,SW,222,0.0,5.0,72,0.00,CLR,,0.00,WeatherDisplay:10.37,2013-01-05 23:10:00,
2013-01-05 17:15:00,41.2,32.9,30.19,WSW,237,3.0,10.0,72,0.00,CLR,,0.00,WeatherDisplay:10.37,2013-01-05 23:15:00,
2013-01-05 17:20:00,41.3,33.0,30.19,SE,136,3.5,6.9,72,0.00,CLR,,0.00,WeatherDisplay:10.37,2013-01-05 23:20:00,
2013-01-05 17:25:00,41.2,32.9,30.19,SW,217,1.0,8.0,72,0.00,CLR,,0.00,WeatherDisplay:10.37,2013-01-05 23:25:00,
2013-01-05 17:30:00,41.1,33.1,30.20,SW,226,1.0,3.0,73,0.00,CLR,,0.00,WeatherDisplay:10.37,2013-01-05 23:30:00,
2013-01-05 17:35:00,41.1,33.1,30.20,West,259,3.8,4.6,73,0.00,CLR,,0.00,WeatherDisplay:10.37,2013-01-05 23:35:00,
2013-01-05 17:40:00,41.1,33.1,30.21,WSW,244,0.0,4.0,73,0.00,CLR,,0.00,WeatherDisplay:10.37,2013-01-05 23:40:00,
2013-01-05 17:45:00,41.0,33.0,30.21,WSW,247,2.0,6.0,73,0.00,CLR,,0.00,WeatherDisplay:10.37,2013-01-05 23:45:00,
2013-01-05 17:50:00,41.0,33.0,30.21,WSW,254,1.1,3.5,73,0.00,CLR,,0.00,WeatherDisplay:10.37,2013-01-05 23:50:00,
2013-01-05 17:55:00,40.9,32.9,30.21,WSW,257,2.0,5.0,73,0.00,CLR,,0.00,WeatherDisplay:10.37,2013-01-05 23:55:00,
2013-01-05 18:00:00,41.0,33.0,30.21,WSW,255,1.0,5.0,73,0.00,CLR,,0.00,WeatherDisplay:10.37,2013-01-06 00:00:00,
2013-01-05 18:05:00,40.9,32.9,30.22,WSW,247,0.0,2.0,73,0.00,CLR,,0.00,WeatherDisplay:10.37,2013-01-06 00:05:00,
2013-01-05 18:10:00,40.9,32.9,30.21,SW,234,1.0,6.0,73,0.00,CLR,,0.00,WeatherDisplay:10.37,2013-01-06 00:10:00,
2013-01-05 18:15:00,41.1,32.8,30.22,WSW,240,4.0,4.0,72,0.00,CLR,,0.00,WeatherDisplay:10.37,2013-01-06 00:15:00,
2013-01-05 18:20:00,41.1,32.8,30.22,WSW,237,0.0,4.0,72,0.00,CLR,,0.00,WeatherDisplay:10.37,2013-01-06 00:20:00,
2013-01-05 18:25:00,41.1,32.8,30.22,WSW,243,0.0,5.0,72,0.00,CLR,,0.00,WeatherDisplay:10.37,2013-01-06 00:25:00,
2013-01-05 18:30:00,41.0,33.0,30.22,SW,235,5.0,7.0,73,0.00,CLR,,0.00,WeatherDisplay:10.37,2013-01-06 00:30:00,
2013-01-05 18:35:00,41.0,33.0,30.22,SW,236,2.0,6.0,73,0.00,CLR,,0.00,WeatherDisplay:10.37,2013-01-06 00:35:00,
2013-01-05 18:40:00,41.0,33.0,30.22,SW,235,1.4,2.3,73,0.00,CLR,,0.00,WeatherDisplay:10.37,2013-01-06 00:40:00,
2013-01-05 18:45:00,41.0,33.0,30.22,WSW,254,0.7,3.0,73,0.00,CLR,,0.00,WeatherDisplay:10.37,2013-01-06 00:45:00,
2013-01-05 18:50:00,41.0,33.0,30.22,WSW,238,1.0,5.0,73,0.00,CLR,,0.00,WeatherDisplay:10.37,2013-01-06 00:50:00,
2013-01-05 18:55:00,41.0,33.0,30.22,WSW,243,1.0,5.0,73,0.00,CLR,,0.00,WeatherDisplay:10.37,2013-01-06 00:55:00,
2013-01-05 19:00:00,41.0,33.0,30.22,WSW,240,3.0,7.0,73,0.00,CLR,,0.00,WeatherDisplay:10.37,2013-01-06 01:00:00,
2013-01-05 19:05:00,40.9,32.9,30.22,SW,235,3.0,6.0,73,0.00,CLR,,0.00,WeatherDisplay:10.37,2013-01-06 01:05:00,
2013-01-05 19:10:00,40.9,32.9,30.22,SW,231,2.1,6.9,73,0.00,CLR,,0.00,WeatherDisplay:10.37,2013-01-06 01:10:00,
2013-01-05 19:15:00,40.9,33.2,30.22,WSW,250,0.7,3.5,74,0.00,CLR,,0.00,WeatherDisplay:10.37,2013-01-06 01:15:00,
2013-01-05 19:20:00,40.8,33.2,30.22,SW,233,1.0,3.0,74,0.00,CLR,,0.00,WeatherDisplay:10.37,2013-01-06 01:20:00,
2013-01-05 19:25:00,40.7,33.1,30.22,SW,234,1.0,3.0,74,0.00,CLR,,0.00,WeatherDisplay:10.37,2013-01-06 01:25:00,
2013-01-05 19:30:00,40.6,33.0,30.22,SW,229,0.0,1.0,74,0.00,CLR,,0.00,WeatherDisplay:10.37,2013-01-06 01:30:00,
2013-01-05 19:35:00,40.5,33.2,30.22,SW,234,0.0,2.0,75,0.00,CLR,,0.00,WeatherDisplay:10.37,2013-01-06 01:35:00,
2013-01-05 19:40:00,40.4,33.1,30.22,WSW,243,0.2,3.5,75,0.00,CLR,,0.00,WeatherDisplay:10.37,2013-01-06 01:40:00,
2013-01-05 19:45:00,40.4,33.1,30.22,WSW,242,0.0,2.0,75,0.00,CLR,,0.00,WeatherDisplay:10.37,2013-01-06 01:45:00,
2013-01-05 19:50:00,40.3,33.0,30.22,WSW,252,0.0,1.1,75,0.00,CLR,,0.00,WeatherDisplay:10.37,2013-01-06 01:50:00,
2013-01-05 19:55:00,40.2,32.9,30.22,West,259,0.0,3.5,75,0.00,CLR,,0.00,WeatherDisplay:10.37,2013-01-06 01:55:00,
2013-01-05 20:00:00,40.1,33.1,30.22,WSW,247,0.0,6.0,76,0.00,CLR,,0.00,WeatherDisplay:10.37,2013-01-06 02:00:00,
2013-01-05 20:05:00,39.8,32.8,30.22,SW,235,0.2,2.3,76,0.00,CLR,,0.00,WeatherDisplay:10.37,2013-01-06 02:05:00,
2013-01-05 20:10:00,39.6,33.0,30.22,WSW,250,0.3,1.1,77,0.00,CLR,,0.00,WeatherDisplay:10.37,2013-01-06 02:10:00,
2013-01-05 20:15:00,39.5,32.9,30.21,SW,228,0.0,4.0,77,0.00,CLR,,0.00,WeatherDisplay:10.37,2013-01-06 02:15:00,
2013-01-05 20:20:00,39.3,33.0,30.21,SW,221,1.7,6.0,78,0.00,CLR,,0.00,WeatherDisplay:10.37,2013-01-06 02:20:00,
2013-01-05 20:25:00,39.3,33.0,30.21,SW,227,1.0,6.0,78,0.00,CLR,,0.00,WeatherDisplay:10.37,2013-01-06 02:25:00,
2013-01-05 20:30:00,39.0,32.7,30.21,SW,231,0.0,4.0,78,0.00,CLR,,0.00,WeatherDisplay:10.37,2013-01-06 02:30:00,
2013-01-05 20:35:00,38.9,32.9,30.22,WSW,239,0.8,4.6,79,0.00,CLR,,0.00,WeatherDisplay:10.37,2013-01-06 02:35:00,
2013-01-05 20:40:00,38.8,32.8,30.21,SW,236,2.0,5.0,79,0.00,CLR,,0.00,WeatherDisplay:10.37,2013-01-06 02:40:00,
2013-01-05 20:45:00,38.7,32.7,30.21,WSW,239,1.0,5.0,79,0.00,CLR,,0.00,WeatherDisplay:10.37,2013-01-06 02:45:00,
2013-01-05 20:50:00,38.5,32.9,30.21,WSW,241,0.3,3.5,80,0.00,CLR,,0.00,WeatherDisplay:10.37,2013-01-06 02:50:00,
2013-01-05 20:55:00,38.3,32.7,30.22,WSW,250,0.0,2.0,80,0.00,CLR,,0.00,WeatherDisplay:10.37,2013-01-06 02:55:00,
2013-01-05 21:00:00,38.1,32.8,30.22,WSW,258,1.2,3.5,81,0.00,CLR,,0.00,WeatherDisplay:10.37,2013-01-06 03:00:00,
2013-01-05 21:05:00,37.8,32.5,30.21,WSW,251,0.0,4.0,81,0.00,CLR,,0.00,WeatherDisplay:10.37,2013-01-06 03:05:00,
2013-01-05 21:10:00,37.5,32.5,30.22,WSW,252,1.0,3.0,82,0.00,CLR,,0.00,WeatherDisplay:10.37,2013-01-06 03:10:00,
2013-01-05 21:15:00,37.3,32.3,30.22,WSW,239,0.3,1.0,82,0.00,CLR,,0.00,WeatherDisplay:10.37,2013-01-06 03:15:00,
2013-01-05 21:20:00,37.2,32.5,30.22,WSW,250,1.2,3.5,83,0.00,CLR,,0.00,WeatherDisplay:10.37,2013-01-06 03:20:00,
2013-01-05 21:25:00,37.1,32.4,30.22,WSW,256,1.2,3.5,83,0.00,CLR,,0.00,WeatherDisplay:10.37,2013-01-06 03:25:00,
2013-01-05 21:30:00,37.1,32.4,30.22,WSW,258,0.0,4.0,83,0.00,CLR,,0.00,WeatherDisplay:10.37,2013-01-06 03:30:00,
2013-01-05 21:35:00,37.0,32.3,30.22,West,262,1.0,5.0,83,0.00,CLR,,0.00,WeatherDisplay:10.37,2013-01-06 03:35:00,
2013-01-05 21:40:00,37.0,32.3,30.23,SW,231,0.9,3.5,83,0.00,CLR,,0.00,WeatherDisplay:10.37,2013-01-06 03:40:00,
2013-01-05 21:45:00,36.9,32.5,30.22,West,269,2.3,0.0,84,0.00,CLR,,0.00,WeatherDisplay:10.37,2013-01-06 03:45:00,
2013-01-05 21:50:00,37.1,32.4,30.22,West,269,1.6,4.6,83,0.00,CLR,,0.00,WeatherDisplay:10.37,2013-01-06 03:50:00,
2013-01-05 21:55:00,37.0,32.6,30.22,West,273,3.5,4.0,84,0.00,CLR,,0.00,WeatherDisplay:10.37,2013-01-06 03:55:00,
2013-01-05 22:00:00,36.8,32.1,30.22,WSW,255,2.0,4.0,83,0.00,CLR,,0.00,WeatherDisplay:10.37,2013-01-06 04:00:00,
2013-01-05 22:05:00,36.5,32.2,30.22,WSW,253,2.0,4.0,84,0.00,CLR,,0.00,WeatherDisplay:10.37,2013-01-06 04:05:00,
2013-01-05 22:10:00,36.8,32.4,30.22,WSW,250,1.9,3.5,84,0.00,CLR,,0.00,WeatherDisplay:10.37,2013-01-06 04:10:00,
2013-01-05 22:15:00,36.9,32.5,30.22,WSW,250,2.2,3.5,84,0.00,CLR,,0.00,WeatherDisplay:10.37,2013-01-06 04:15:00,
2013-01-05 22:20:00,37.0,32.3,30.22,West,264,2.0,6.0,83,0.00,CLR,,0.00,WeatherDisplay:10.37,2013-01-06 04:20:00,
2013-01-05 22:25:00,37.0,32.6,30.22,West,263,3.1,4.0,84,0.00,CLR,,0.00,WeatherDisplay:10.37,2013-01-06 04:25:00,
2013-01-05 22:30:00,37.4,32.7,30.22,WSW,255,2.6,5.8,83,0.00,CLR,,0.00,WeatherDisplay:10.37,2013-01-06 04:30:00,
2013-01-05 22:35:00,37.3,32.6,30.22,West,267,2.0,8.0,83,0.00,CLR,,0.00,WeatherDisplay:10.37,2013-01-06 04:35:00,
2013-01-05 22:40:00,37.2,32.5,30.22,WSW,245,1.2,4.6,83,0.00,CLR,,0.00,WeatherDisplay:10.37,2013-01-06 04:40:00,
2013-01-05 22:45:00,37.1,32.4,30.22,West,263,3.0,7.0,83,0.00,CLR,,0.00,WeatherDisplay:10.37,2013-01-06 04:45:00,
2013-01-05 22:50:00,36.9,32.2,30.22,West,281,1.6,5.0,83,0.00,CLR,,0.00,WeatherDisplay:10.37,2013-01-06 04:50:00,
2013-01-05 22:55:00,36.9,32.2,30.22,West,271,2.1,3.5,83,0.00,CLR,,0.00,WeatherDisplay:10.37,2013-01-06 04:55:00,
2013-01-05 23:00:00,36.8,32.1,30.22,West,259,1.6,3.5,83,0.00,CLR,,0.00,WeatherDisplay:10.37,2013-01-06 05:00:00,
2013-01-05 23:01:00,36.8,32.1,30.22,WSW,246,2.1,3.5,83,0.00,CLR,,0.00,WeatherDisplay:10.37,2013-01-06 05:01:00,
2013-01-05 23:03:00,36.9,32.2,30.22,West,266,1.0,4.6,83,0.00,CLR,,0.00,WeatherDisplay:10.37,2013-01-06 05:03:00,
2013-01-05 23:06:00,36.9,32.5,30.22,WSW,254,3.0,3.5,84,0.00,CLR,,0.00,WeatherDisplay:10.37,2013-01-06 05:06:00,
2013-01-05 23:11:00,36.9,32.2,30.22,West,274,1.6,5.8,83,0.00,CLR,,0.00,WeatherDisplay:10.37,2013-01-06 05:11:00,
2013-01-05 23:16:00,36.9,32.2,30.22,West,264,2.6,2.6,83,0.00,CLR,,0.00,WeatherDisplay:10.37,2013-01-06 05:16:00,
2013-01-05 23:21:00,36.7,32.0,30.22,West,277,1.3,2.3,83,0.00,CLR,,0.00,WeatherDisplay:10.37,2013-01-06 05:21:00,
2013-01-05 23:26:00,36.7,32.3,30.22,West,267,3.6,4.6,84,0.00,CLR,,0.00,WeatherDisplay:10.37,2013-01-06 05:26:00,
2013-01-05 23:31:00,36.8,32.4,30.22,WSW,258,1.0,2.3,84,0.00,CLR,,0.00,WeatherDisplay:10.37,2013-01-06 05:31:00,
2013-01-05 23:36:00,36.6,32.2,30.22,West,264,1.7,5.0,84,0.00,CLR,,0.00,WeatherDisplay:10.37,2013-01-06 05:36:00,
2013-01-05 23:41:00,36.5,32.1,30.21,WSW,257,0.5,3.5,84,0.00,CLR,,0.00,WeatherDisplay:10.37,2013-01-06 05:41:00,
2013-01-05 23:46:00,36.5,32.1,30.21,West,269,1.3,2.3,84,0.00,CLR,,0.00,WeatherDisplay:10.37,2013-01-06 05:46:00,
2013-01-05 23:51:00,36.3,31.9,30.21,West,269,1.1,3.5,84,0.00,CLR,,0.00,WeatherDisplay:10.37,2013-01-06 05:51:00,
2013-01-05 23:56:00,36.4,32.3,30.21,WSW,255,5.3,8.1,85,0.00,CLR,,0.00,WeatherDisplay:10.37,2013-01-06 05:56:00,